Location: Mahannah Oil Field
(37.4664°N, 96.6003°W)
Time: 19:33:41
(UTC+00:00)

Transit 2A Rocket - Pass Details

Date: 29 January 2021
Orbit: 594 x 908 km, 66.7° (Epoch: 05 March)

Event Time Altitude Azimuth Distance (km) Brightness Sun altitude
Rises 15:42:44 0° 167° (SSE) 3,387 9.3 20.9°
Reaches altitude 10° 15:45:59 10° 149° (SSE) 2,402 9.4 21.3°
Maximum altitude 15:49:39 18° 108° (ESE) 1,827 8.3 21.8°
Drops below altitude 10° 15:53:08 10° 65° (ENE) 2,271 7.8 22.3°
Sets 15:56:04 0° 47° (NE) 3,135 8.2 22.7°
